Regional Weather Roundup
Issued by NWS

Home | Current Version | Previous Version | Graphics & Text | Print | Product List | Glossary On
Versions: 1 2 3 4 5 6 7 8 9 10 11 12 13 14 15 16 17 18 19 20 21 22 23 24 25 26 27 28 29 30 31 32 33 34 35 36 37 38 39 40 41 42 43 44 45 46 47 48 49 50
000
ASUS43 KMPX 180301
RWRMN
WEATHER ROUNDUP FOR MINNESOTA
NATIONAL WEATHER SERVICE TWIN CITIES/CHANHASSEN MN
900 PM CST WED DEC 17 2014


NOTE: "FAIR" INDICATES FEW OR NO CLOUDS BELOW 12,000 FEET WITH NO
SIGNIFICANT WEATHER AND/OR OBSTRUCTIONS TO VISIBILITY. N/A MEANS
CURRENT SKY AND/OR WEATHER CONDITIONS ARE NOT AVAILABLE.

MNZ060>063-068>070-180400-
   Twin Cities Metro

CITY           SKY/WX    TMP DP  RH WIND       PRES   REMARKS
TWIN CITIES    CLEAR     16   8  71 CALM      30.33R
ST PAUL        CLEAR     16  10  77 CALM      30.35R
CRYSTAL        CLEAR     12   8  84 CALM      30.32R
BLAINE         CLEAR     10  10 100 CALM      30.31R
LAKEVILLE      PTCLDY    12  10  92 CALM      30.32R
EDEN PRAIRIE   PTCLDY    16   9  74 CALM      30.32R
SOUTH ST PAUL  CLEAR     14  10  84 CALM      30.33R
LAKE ELMO      FAIR      10   9  92 CALM      30.33R
$$
MNZ001>005-007-008-013>017-022>024-027-028-180400-
   Northwest Minnesota

CITY           SKY/WX    TMP DP  RH WIND       PRES   REMARKS
BEMIDJI        PTCLDY     6   3  87 CALM      30.27S
HALLOCK        PTCLDY     9   5  85 CALM      30.31S
ROSEAU         PTCLDY     9   3  78 CALM      30.31S
WARROAD        PTCLDY     5   1  85 CALM      30.31S
THIEF RVR FALL PTCLDY    10   7  85 CALM      30.29F
CROOKSTON      PTCLDY    10   9  92 E3        30.31F
FOSSTON        PTCLDY     5   1  85 CALM      30.30R
DETROIT LAKES  PTCLDY    10   9  92 CALM      30.29R
MOORHEAD       CLEAR     12  12 100 CALM      30.32R
PARK RAPIDS    CLEAR      6   3  87 NW3       30.27R
MAHNOMEN       FAIR      10   7  89 E7        30.28S WCI  -2
$$
MNZ006-009>011-018-025>026-180400-
   North Central Minnesota

CITY           SKY/WX    TMP DP  RH WIND       PRES   REMARKS
BAUDETTE       PTCLDY     6   2  83 CALM      30.29S
FLAG ISLAND    MOCLDY    10   7  85 CALM      30.30S
INTL FALLS     MOCLDY    11   1  64 E5        30.30R WCI   3
WASKISH        PTCLDY     7   3  85 CALM      30.29S
BIG FORK       MOCLDY     7   3  85 CALM      30.28S
LONGVILLE      PTCLDY     5   3  92 CALM      30.28S
GRAND RAPIDS   MOCLDY     9   5  85 CALM      30.26S
CRANE LAKE     PTCLDY     0  -2  92 CALM      30.33F
ORR            PTCLDY     9   1  72 CALM      30.25F
COOK           PTCLDY     3   1  92 CALM      30.28S
WALKER         FAIR       8   6  92 CALM      30.27S
$$
MNZ012-019>021-037-180400-
   Northeast Minnesota

CITY           SKY/WX    TMP DP  RH WIND       PRES   REMARKS
DULUTH         CLOUDY    15  10  80 NE5       30.25S WCI   8
ELY            PTCLDY     1   0  92 CALM      30.28F
HIBBING        PTCLDY    13   7  77 CALM      30.27S
EVELETH        PTCLDY    12   9  85 E3        30.27F
DULUTH HARBOR  CLOUDY    25  19  80 NE12      30.31S WCI  14
TWO HARBORS    CLOUDY    18  10  73 N6        30.27S WCI   9
SILVER BAY     MOCLDY    12   9  85 CALM      30.28S
GRAND MARAIS     N/A     17   5  59 N6        30.34R WCI   9
G MARAIS ARPRT MOCLDY     7   0  72 N9        30.25S WCI  -7
$$
MNZ029>031-032-039>041-046>048-054>057-064-180400-
   West Central Minnesota

CITY           SKY/WX    TMP DP  RH WIND       PRES   REMARKS
FERGUS FALLS   PTCLDY    10   9  92 CALM      30.33F
WHEATON        PTCLDY     5   3  92 CALM      30.33S
MORRIS         PTCLDY     9   7  92 W3        30.30S
ALEXANDRIA     PTCLDY    12   7  80 S6        30.29R WCI   3
ELBOW LAKE     FAIR       9   7  92 CALM      30.29S
WADENA         PTCLDY     7   5  92 CALM      30.28R
GLENWOOD       PTCLDY    10   9  92 SE3       30.29F
APPLETON       PTCLDY     9   5  85 CALM      30.31F
BENSON         PTCLDY     9   5  85 CALM      30.31S
ORTONVILLE     PTCLDY     9   5  85 CALM      30.30S
MADISON        PTCLDY    10   7  85 CALM      30.30F
WILLMAR        FAIR      12  10  92 CALM      30.31F
$$
MNZ033>034-036-042>043-049>051-058-059-180400-
   Central Minnesota

CITY           SKY/WX    TMP DP  RH WIND       PRES   REMARKS
ST CLOUD       CLOUDY    14   9  80 CALM      30.31R
SAUK CENTRE    FAIR       9   7  94 CALM      30.31R
PAYNESVILLE    PTCLDY     6   6  96 CALM      30.31S
AITKIN         PTCLDY     9   3  78 CALM      30.27S
PINE RIVER     PTCLDY     7   5  92 CALM      30.30S
BRAINERD       PTCLDY     6   4  91 CALM      30.29R
STAPLES        PTCLDY     9   7  92 CALM      30.29R
LONG PRAIRIE   FAIR       9   7  92 CALM      30.29S
LITTLE FALLS   PTCLDY     7   3  85 CALM      30.31R
LITCHFIELD     CLEAR     12  12 100 CALM      30.31S
BUFFALO        PTCLDY    13  10  89 CALM      30.33S
MAPLE LAKE     PTCLDY    11  10  93 CALM      30.32S
$$
MNZ037-044-045-052-053-180400-
   East Central Minnesota

CITY           SKY/WX    TMP DP  RH WIND       PRES   REMARKS
PRINCETON      MOCLDY    10   9  92 CALM      30.31R
MORA           PTCLDY    10   9  92 CALM      30.32R
CAMBRIDGE      PTCLDY    10   3  72 CALM      30.31R
RUSH CITY      PTCLDY     9   7  91 CALM      30.32R
MOOSE LAKE     PTCLDY     9   5  85 CALM      30.27F
HINCKLEY       FAIR      10   9  92 CALM      30.30R
CLOQUET        PTCLDY     9   5  85 CALM      30.27S
MCGREGOR       PTCLDY     9   5  85 CALM      30.29S
$$
MNZ071>073-080-081-089-090-097-098-180400-
   Southwest Minnesota

CITY           SKY/WX    TMP DP  RH WIND       PRES   REMARKS
MONTEVIDEO     PTCLDY     9   9 100 CALM      30.31F
GRANITE FALLS  PTCLDY     9   7  90 CALM      30.32F
CANBY          PTCLDY     6   4  92 CALM      30.29F
MARSHALL       PTCLDY     5   0  78 CALM      30.27F
REDWOOD FALLS  PTCLDY    10   7  87 NW5       30.30F WCI   2
OLIVIA         FLURRIES  16  12  86 CALM      30.30F
PIPESTONE      PTCLDY    10   9  92 CALM      30.22F
WINDOM           N/A      7   7 100 CALM      30.26F
WORTHINGTON    PTCLDY    10   7  85 CALM      30.25S
JACKSON        PTCLDY    10   9  92 NE9       30.24F WCI  -2
TRACY          MOCLDY    10   8  91 CALM      30.26F
SLAYTON        PTCLDY     9   8  95 CALM      30.24F
$$
MNZ065>067-074>077-082>085-091>093-180400-
   South Central Minnesota

CITY           SKY/WX    TMP DP  RH WIND       PRES   REMARKS
MANKATO        CLOUDY    18  10  73 N3        30.30F
NEW ULM        FLURRIES  14  12  92 NW5       30.30F WCI   6
ST JAMES       MOCLDY    12   9  85 CALM      30.30F
FAIRMONT       MOCLDY    12   9  85 N6        30.26F WCI   3
GLENCOE        PTCLDY    15  12  91 CALM      30.31S
FARIBAULT      FLURRIES  16  12  86 NE3       30.31F
OWATONNA       PTCLDY    14  10  85 CALM      30.29F
WASECA         MOCLDY    14  12  92 N3        30.30F
ALBERT LEA     CLOUDY    16  16 100 CALM      30.28S
$$
MNZ078>079-086>088-094>096-180400-
   Southeast Minnesota

CITY           SKY/WX    TMP DP  RH WIND       PRES   REMARKS
ROCHESTER      CLOUDY    16  11  80 NE6       30.28S WCI   7
RED WING       PTCLDY    12   9  85 N3        30.33R
STANTON        PTCLDY    13   9  85 CALM      30.31S
DODGE CENTER   PTCLDY    14  12  92 NE3       30.27F
WINONA         MOCLDY    19  14  79 CALM      30.34R
AUSTIN         CLOUDY    18  12  79 CALM      30.28S
PRESTON        FLURRIES  16  12  83 N3        30.28S
$$
ABBREVIATIONS USED IN REMARKS
   TC - TEMPERATURES IN CELSIUS
  WCI - WIND CHILL INDEX
   HX - HEAT INDEX
  VSB - VISIBILITY
$$



USA.gov is the U.S. government's official web portal to all federal, state and local government web resources and services.